Date,TemperatureHighF,TemperatureAvgF,TemperatureLowF,DewpointHighF,DewpointAvgF,DewpointLowF,HumidityHigh,HumidityAvg,HumidityLow,PressureMaxIn,PressureMinIn,WindSpeedMaxMPH,WindSpeedAvgMPH,GustSpeedMaxMPH,PrecipitationSumIn
2012-1-1,82,62,60,65,31,-100,97,62,43,30.18,30.08,3,-81,10,0.01
2012-1-2,78,50,52,66,14,-100,98,54,53,30.13,29.97,14,-221,18,0.01
2012-1-3,53,44,42,44,16,-100,79,43,17,30.28,30.10,16,-86,25,0.00
2012-1-4,66,52,40,49,36,18,64,54,38,30.31,30.17,11,5,14,0.00
2012-1-5,66,51,46,42,18,-100,67,37,13,30.22,30.10,10,-63,14,0.00
2012-1-7,78,68,57,55,51,34,91,58,22,30.12,30.02,4,1,9,0.00
2012-1-8,78,65,54,61,55,52,98,75,42,30.15,30.07,5,1,10,0.00
2012-1-9,78,66,59,67,57,-100,95,79,52,30.11,30.01,5,-23,10,0.00
2012-1-10,79,39,60,68,-17,-100,98,33,40,30.02,29.90,5,-473,10,0.00
2012-1-11,70,39,68,67,-6,-100,93,52,89,29.91,29.77,2,-437,5,0.00
2012-1-12,77,55,67,68,28,-100,97,65,61,29.91,29.77,6,-219,8,0.00
2012-1-13,70,52,67,64,24,-100,89,61,64,30.08,29.90,9,-230,13,0.00
2012-1-14,60,24,53,44,-40,-100,68,25,44,30.25,30.07,16,-496,16,0.00
2012-1-15,71,24,57,46,-48,-100,66,17,28,30.34,30.23,6,-529,11,0.00
2012-1-16,72,65,55,57,50,41,81,60,47,30.34,30.23,8,3,16,0.00
2012-1-17,78,69,57,61,57,51,92,67,45,30.23,30.09,6,2,11,0.00
2012-1-18,82,69,60,65,60,52,97,75,36,30.09,29.93,6,1,11,0.00
2012-1-19,76,67,57,62,56,46,93,71,36,30.07,29.93,10,3,13,0.00
2012-1-20,77,65,54,60,54,51,95,71,41,30.12,30.03,5,1,11,0.00
2012-1-21,81,68,56,65,58,52,97,74,37,30.09,29.97,4,1,10,0.00
2012-1-22,81,69,58,67,59,55,95,72,43,30.06,29.98,5,1,10,0.00
2012-1-23,80,72,64,70,64,61,98,80,54,30.06,29.99,7,2,17,0.00
2012-1-24,81,71,63,73,63,-100,98,80,54,30.10,30.01,7,2,12,0.00
2012-1-25,80,72,65,71,65,62,98,78,53,30.10,30.01,6,2,12,0.00
2012-1-26,80,75,70,69,66,62,89,76,55,30.05,29.93,8,3,17,0.00
2012-1-27,88,77,70,71,66,58,91,72,37,30.00,29.87,6,2,11,0.00
2012-1-28,84,73,67,68,66,61,94,79,47,30.08,29.97,5,1,12,0.00
2012-1-29,76,70,65,65,62,59,91,76,61,30.17,30.03,6,2,13,0.00
2012-1-30,76,69,61,63,59,56,95,72,50,30.23,30.13,8,3,17,0.00
2012-1-31,78,71,64,64,60,57,81,68,54,30.23,30.14,7,3,15,0.01
2012-2-1,80,74,70,67,64,61,83,72,54,30.16,30.06,6,3,11,28.75
2012-2-2,78,72,66,71,66,65,97,85,65,30.09,29.99,4,1,7,29.67
2012-2-3,77,73,66,69,65,63,89,78,65,30.12,30.03,8,4,16,0.00
2012-2-4,78,62,70,70,39,-100,92,67,72,30.09,29.99,11,-124,13,7.37
2012-2-5,80,34,68,72,-43,-100,92,24,69,29.99,29.91,8,-544,11,0.20
2012-2-6,77,41,69,76,-12,-100,100,49,68,30.01,29.91,6,-413,12,0.01
2012-2-7,75,34,70,73,-37,-100,100,33,43,29.95,29.85,4,-475,8,0.00
2012-2-8,72,27,68,70,-45,-100,97,31,81,29.99,29.90,8,-598,8,0.27
2012-2-9,76,63,66,70,42,-100,93,72,70,30.02,29.93,6,-46,14,0.30
2012-2-10,85,75,71,78,71,65,96,88,54,29.99,29.82,6,2,12,2.77
2012-2-11,72,66,54,70,60,-100,100,81,60,30.00,29.80,14,8,21,29.68
2012-2-12,59,52,46,48,39,29,82,62,42,30.19,30.00,12,8,21,29.75
2012-2-13,71,58,46,52,46,41,89,66,40,30.16,30.05,7,3,12,29.77
2012-2-14,77,66,54,62,56,52,97,74,48,30.07,30.00,5,1,11,28.28
2012-2-15,80,70,60,68,60,-100,98,76,48,30.13,30.04,6,1,13,29.77
2012-2-16,81,73,64,69,65,62,96,77,53,30.12,30.00,6,2,13,6.53
2012-2-17,84,73,66,74,61,-100,100,77,50,30.02,29.91,4,1,9,0.09
2012-2-18,83,74,66,71,65,61,100,77,50,29.96,29.82,5,1,10,0.01
2012-2-19,87,77,68,76,67,-100,100,78,51,29.89,29.77,11,3,14,0.27
2012-2-20,76,67,60,66,58,52,92,73,44,30.09,29.87,11,4,17,0.13
2012-2-21,78,66,58,60,52,-100,91,66,44,30.14,30.05,5,-24,12,0.00
2012-2-22,82,50,60,65,-13,-100,96,43,57,30.07,29.88,11,-201,11,0.10
2012-2-23,89,64,63,67,37,-100,97,59,41,29.93,29.84,4,-160,12,0.01
2012-2-24,91,77,67,78,66,-100,100,76,37,29.97,29.88,6,1,21,0.04
2012-2-25,81,74,71,79,68,-100,100,82,63,30.11,29.94,6,2,13,0.00
2012-2-26,78,73,68,71,64,-100,100,80,72,30.17,30.09,8,4,13,0.01
2012-2-27,83,77,74,70,68,67,85,76,60,30.20,30.11,7,4,13,0.00
2012-2-28,84,76,69,76,68,-100,100,77,57,30.17,30.09,6,2,13,0.26
2012-2-29,83,76,72,75,68,-100,100,77,58,30.14,30.03,6,2,14,0.36
2012-3-1,85,76,70,76,67,-100,100,78,55,30.05,29.94,6,2,12,0.00
2012-3-2,85,76,68,78,67,-100,100,78,48,29.99,29.90,6,2,12,0.00
2012-3-3,85,48,72,73,5,-100,90,48,55,29.91,29.79,18,-319,18,0.00
2012-3-4,82,38,56,72,-14,-100,94,36,33,30.11,29.76,21,-316,25,0.35
2012-3-5,75,63,53,55,45,34,81,53,38,30.25,30.11,10,4,20,0.00
2012-3-6,78,68,56,62,55,50,92,65,42,30.29,30.19,11,5,20,0.00
2012-3-7,76,58,70,67,29,-100,84,59,65,30.27,30.17,18,-130,20,0.07
2012-3-8,78,73,69,75,66,-100,100,86,72,30.19,30.09,9,4,20,0.95
2012-3-9,81,76,72,70,68,64,90,76,63,30.12,30.02,8,3,14,0.07
2012-3-10,85,72,70,74,52,-100,100,71,48,30.11,30.00,6,-47,11,0.00
2012-3-11,82,67,70,67,24,-100,84,52,54,30.18,30.07,9,-77,16,0.12
2012-3-12,79,74,70,66,61,57,87,66,50,30.21,30.11,8,4,13,2.31
2012-3-13,81,70,67,64,47,-100,78,57,45,30.16,30.08,7,-42,12,2.11
2012-3-14,68,67,66,64,62,61,86,84,78,30.13,30.07,0,0,6,0.00
2012-3-16,81,77,72,65,62,52,75,61,38,30.14,30.05,6,4,12,0.00
2012-3-17,82,73,64,64,62,58,91,68,46,30.14,30.05,4,1,10,0.00
2012-3-18,83,73,63,66,62,56,94,71,42,30.14,30.06,7,2,13,0.03
2012-3-19,82,75,69,67,61,50,88,65,37,30.09,29.99,7,2,12,0.03
2012-3-20,81,76,72,66,63,58,78,66,48,30.02,29.94,8,3,15,0.00
2012-3-21,82,77,73,69,67,63,83,72,53,30.06,29.96,10,5,19,0.02
2012-3-22,84,77,73,69,65,-100,81,69,48,30.09,30.00,8,-2,13,0.00
2012-3-23,84,69,67,68,41,-100,90,53,39,30.05,29.95,5,-86,10,0.00
2012-3-24,86,76,66,65,62,59,92,65,42,29.98,29.86,7,2,13,0.00
2012-3-25,85,76,68,69,65,60,92,69,43,29.91,29.74,8,2,15,0.91
2012-3-26,82,72,62,65,56,41,85,62,24,29.92,29.81,8,4,14,0.00
2012-3-27,82,74,67,72,62,57,100,70,48,30.08,29.90,7,3,13,0.00
2012-3-28,81,74,67,67,61,56,92,66,48,30.09,30.00,9,4,16,0.00
2012-3-29,83,73,65,74,62,-100,100,72,43,30.01,29.91,5,1,10,0.00
2012-3-30,125,73,62,73,59,-100,100,68,41,30.00,29.91,5,1,12,0.00
2012-3-31,90,74,66,74,55,-100,100,70,42,29.95,29.81,7,-11,14,0.00
2012-4-1,87,77,72,74,66,-100,100,74,35,29.88,29.77,8,3,17,0.02
2012-4-2,88,76,67,73,63,-100,100,70,38,29.85,29.76,5,-8,10,0.00
2012-4-3,90,78,65,68,62,-100,93,64,28,29.90,29.82,6,1,11,0.00
2012-4-4,89,79,70,78,66,-100,100,70,34,29.91,29.75,7,2,13,0.00
2012-4-5,90,64,70,71,35,-100,90,58,34,29.82,29.66,13,-163,15,0.00
2012-4-6,86,38,73,77,-22,-100,90,31,52,29.82,29.66,22,-471,22,0.00
2012-4-7,80,17,73,64,-74,-100,63,10,57,30.03,29.82,13,-691,13,0.00
2012-4-8,80,53,67,60,10,-100,72,38,43,30.07,30.00,7,-266,13,0.00
2012-4-9,82,72,62,64,59,57,93,65,44,30.01,29.92,6,2,11,0.00
2012-4-10,84,74,63,70,58,-100,100,63,29,30.01,29.91,6,1,12,0.00
2012-4-11,86,76,65,66,61,52,94,62,32,29.99,29.87,6,2,13,0.00
2012-4-12,88,75,63,65,61,50,90,66,30,29.97,29.88,9,3,16,0.08
2012-4-13,80,74,69,70,67,62,92,78,55,30.03,29.92,8,2,13,0.00
2012-4-14,79,75,72,69,61,58,86,64,53,30.14,30.02,9,5,18,0.00
2012-4-15,81,75,70,63,59,54,66,57,41,30.13,30.07,10,5,17,0.00
2012-4-16,80,76,72,62,58,52,67,54,41,30.13,30.03,8,4,17,0.00
2012-4-17,84,76,69,64,59,51,74,56,34,30.10,29.99,7,3,16,0.00
2012-4-18,83,76,68,67,64,60,87,66,49,30.03,29.89,7,3,16,0.00
2012-4-19,84,77,71,68,66,63,86,69,54,29.93,29.82,12,2,16,0.00
2012-4-20,87,77,67,72,66,-100,100,74,47,29.87,29.75,12,2,17,0.00
2012-4-21,76,73,70,75,69,-100,100,89,68,29.86,29.60,7,2,16,0.00
2012-4-22,82,76,68,77,67,-100,100,78,52,29.67,29.49,14,4,21,0.00
2012-4-23,79,55,60,64,21,-100,91,50,33,29.85,29.67,19,-196,26,0.07
2012-4-24,73,58,56,56,23,-100,83,40,24,29.96,29.83,12,-107,19,0.00
2012-4-25,80,60,56,53,31,-100,81,46,33,30.05,29.95,8,-107,16,0.00
2012-4-26,83,55,60,71,12,-100,94,41,40,30.08,29.99,6,-236,16,0.00
2012-4-27,82,61,65,70,32,-100,92,57,55,30.05,29.97,8,-149,16,0.08
2012-4-28,79,74,70,77,53,-100,100,79,74,30.01,29.95,6,-16,16,0.00
2012-4-29,78,75,72,78,65,-100,100,88,77,30.00,29.92,10,4,17,0.00
2012-4-30,76,73,71,74,71,68,100,92,83,29.97,29.91,9,6,17,0.00
2012-5-1,82,62,74,73,29,-100,90,58,64,30.00,29.92,10,-173,18,0.00
2012-5-2,77,76,75,70,70,69,85,82,78,29.98,29.93,5,3,11,0.00
2012-5-3,77,76,76,70,69,68,79,78,78,30.02,30.00,3,2,5,0.00
2012-5-4,86,71,71,70,50,-100,90,61,46,30.02,29.93,5,-82,11,0.06
2012-5-5,88,79,69,71,67,64,95,69,46,29.95,29.87,5,2,11,0.00
2012-5-6,90,80,72,73,69,62,95,72,40,29.92,29.81,5,1,12,0.00
2012-5-8,90,78,72,75,70,62,100,78,41,29.85,29.79,7,1,20,0.00
2012-5-9,90,79,71,80,70,-100,100,79,47,29.84,29.71,7,1,11,0.00
2012-5-10,91,79,72,75,72,64,95,80,46,29.82,29.70,15,2,26,0.00
2012-5-11,73,73,72,73,67,-100,100,94,95,29.82,29.80,0,0,0,0.00
2012-5-12,84,82,80,70,68,65,68,62,56,30.08,30.02,9,6,16,0.00
2012-5-14,78,78,78,76,76,75,95,94,92,29.93,29.92,2,1,3,0.00
2012-5-15,88,76,73,84,60,-100,100,79,59,29.94,29.86,8,-12,18,0.00
2012-5-16,82,76,72,76,72,-100,100,87,70,29.95,29.84,4,0,6,0.00
2012-5-17,86,78,71,77,71,-100,100,82,59,29.90,29.79,5,1,10,0.00
2012-5-18,86,76,69,83,72,66,96,86,56,29.86,29.79,13,1,13,0.00
2012-5-19,90,76,71,78,60,-100,100,82,52,29.90,29.81,9,1,13,0.00
2012-5-20,88,78,72,76,68,-100,100,82,53,29.90,29.81,4,1,8,0.00
2012-5-21,89,79,72,76,70,-100,100,78,50,29.91,29.84,4,1,9,0.00
2012-5-22,87,77,73,76,72,-100,100,87,55,29.90,29.84,8,1,12,0.29
2012-5-23,86,78,74,77,72,-100,100,85,62,29.86,29.77,7,2,13,0.00
2012-5-24,83,76,72,78,72,-100,100,88,69,29.83,29.74,7,1,12,0.00
2012-5-25,92,81,72,76,71,-100,100,76,47,29.94,29.81,5,1,10,0.00
2012-5-26,91,81,74,80,72,-100,100,77,49,29.95,29.87,6,1,12,0.00
2012-5-27,93,54,75,77,15,-100,97,50,37,29.90,29.79,8,-331,14,0.00
2012-5-28,-200,0,200,-100,-100,-100,0,0,100,29.90,29.82,0,-999,10,0.00
2012-5-29,-200,0,200,-100,-100,-100,0,0,100,29.90,29.80,0,-993,10,0.00
2012-5-30,93,86,75,80,70,-100,100,65,39,29.85,29.75,7,2,11,0.00
2012-5-31,89,81,76,76,73,67,92,79,51,29.88,29.79,5,1,11,0.00
2012-6-1,85,78,75,79,74,-100,100,92,69,29.92,29.80,7,1,12,0.00
2012-6-2,92,82,76,80,73,-100,100,77,50,29.91,29.81,9,2,14,0.00
2012-6-3,92,68,74,76,46,-100,96,67,44,29.94,29.87,7,-144,10,0.00
2012-6-4,81,1,81,74,-97,-100,80,1,79,29.93,29.80,7,-966,7,0.00
2012-6-5,81,13,78,75,-74,-100,88,12,80,29.82,29.74,7,-800,7,0.00
2012-6-6,88,45,82,76,-22,-100,83,31,54,29.89,29.80,6,-465,9,0.00
2012-6-7,95,53,80,78,-27,-100,90,34,57,29.90,29.83,11,-343,11,0.00
2012-6-8,83,29,76,76,-48,-100,96,26,69,29.91,29.82,3,-569,3,0.00
2012-6-9,90,82,77,83,76,-100,100,86,62,29.95,29.86,7,1,12,0.00
2012-6-10,91,84,78,83,75,-100,100,78,57,30.04,29.91,6,2,13,0.00
2012-6-11,89,83,76,75,71,65,92,68,47,30.03,29.96,5,2,12,0.00
2012-6-12,89,84,76,69,65,59,76,55,39,29.99,29.89,4,2,10,0.00
2012-6-13,92,82,72,75,68,60,96,66,35,29.92,29.81,10,1,14,0.00
2012-6-14,88,78,74,77,72,67,94,81,65,29.92,29.82,5,1,11,0.00
2012-6-15,90,80,73,77,73,68,96,80,57,29.94,29.84,6,1,13,0.00
2012-6-16,89,81,75,73,70,66,90,69,47,29.94,29.85,6,2,17,0.00
2012-6-17,79,75,72,70,68,66,88,78,68,29.93,29.86,2,0,8,0.00
2012-6-19,81,81,78,73,72,71,77,76,75,29.92,29.89,9,6,14,0.00
2012-6-20,83,78,76,79,70,-100,100,88,71,29.94,29.86,9,2,13,0.00
2012-6-21,89,82,77,76,73,71,90,77,57,29.91,29.80,7,3,14,0.00
2012-6-22,86,79,75,77,74,-100,100,88,67,29.88,29.76,6,1,13,0.00
2012-6-23,86,79,74,80,75,-100,100,90,68,29.93,29.78,8,2,13,0.00
2012-6-24,83,78,75,83,71,-100,100,92,79,29.91,29.78,12,-20,17,0.00
2012-6-25,92,85,82,77,75,71,82,72,53,29.79,29.68,11,6,22,0.00
2012-6-26,88,58,77,78,19,-100,93,53,51,29.70,29.64,16,-269,17,0.00
2012-6-27,94,85,81,78,75,70,87,73,47,29.91,29.69,12,4,26,0.00
2012-6-28,92,82,75,76,72,69,88,72,53,29.99,29.91,6,1,8,0.00
2012-6-29,93,84,76,74,72,67,87,67,43,29.97,29.86,5,1,10,0.00
2012-6-30,94,84,77,76,73,68,90,69,47,29.94,29.85,6,2,13,0.00
2012-7-1,92,85,78,78,73,68,93,70,46,30.00,29.91,5,1,10,0.00
2012-7-2,95,85,77,81,73,64,94,70,39,30.03,29.91,7,2,13,0.00
2012-7-3,94,85,76,82,73,68,94,71,44,29.99,29.92,7,2,13,0.00
2012-7-4,91,84,78,84,74,71,93,75,54,30.01,29.93,6,1,11,0.00
2012-7-5,92,83,76,83,73,69,93,74,54,29.98,29.90,7,2,11,0.00
2012-7-6,92,84,73,83,72,-100,100,74,49,29.98,29.91,7,2,17,0.00
2012-7-7,93,85,77,81,74,68,100,72,45,30.00,29.94,6,2,11,0.00
2012-7-8,90,77,79,80,58,-100,90,68,57,30.00,29.93,8,-66,10,0.00
2012-7-9,91,80,77,78,60,-100,100,69,55,29.98,29.88,5,-20,11,0.00
2012-7-10,91,82,77,79,70,-100,93,73,52,29.96,29.86,9,-10,13,0.00
2012-7-11,81,20,77,74,-68,-100,79,14,79,29.94,29.91,2,-733,2,0.00
2012-7-12,85,34,82,70,-45,-100,61,20,61,29.94,29.91,5,-128,5,0.00
2012-7-13,89,62,75,78,18,-100,100,49,56,29.97,29.90,7,-130,12,0.00
2012-7-14,89,83,78,78,73,70,89,74,57,30.00,29.90,7,3,14,0.00
2012-7-15,81,78,75,76,74,72,95,87,75,30.02,29.95,4,0,7,0.00
2012-7-16,75,75,75,74,73,73,96,96,95,29.95,29.94,0,0,0,0.00
2012-7-17,92,71,74,81,55,-100,100,79,57,29.97,29.90,10,-86,18,0.00
2012-7-18,96,60,74,78,3,-100,84,38,45,30.06,29.92,8,-281,16,0.00
2012-7-19,92,85,78,83,74,-100,100,74,50,30.10,30.02,6,2,11,0.00
2012-7-20,92,85,78,77,75,72,92,73,54,30.06,29.96,6,2,12,0.00
2012-7-21,93,84,82,80,72,-100,86,72,57,30.02,29.95,7,-8,12,0.00
2012-7-22,88,60,73,78,24,-100,100,62,70,30.06,29.95,16,-225,31,0.00
2012-7-23,90,82,76,80,73,-100,100,82,60,30.09,30.01,9,1,28,0.00
2012-7-24,94,82,78,80,70,-100,92,73,55,30.07,29.94,10,-33,28,0.00
2012-7-25,98,74,78,80,48,-100,92,58,37,29.98,29.91,7,-147,28,0.00
2012-7-26,94,54,77,75,-10,-100,93,37,43,29.98,29.91,7,-345,28,0.00
2012-7-27,92,28,80,76,-76,-100,85,14,71,30.02,29.92,12,-548,28,0.00
2012-7-28,88,10,76,76,-94,-100,96,3,89,30.05,29.96,8,-824,28,0.00
2012-7-29,93,8,93,-100,-100,-100,0,0,100,30.01,29.92,8,-768,28,0.00
2012-7-30,93,44,78,74,-14,-100,78,29,48,29.98,29.90,10,-492,28,0.00
2012-7-31,95,56,76,77,-5,-100,71,32,43,29.98,29.89,11,-256,12,0.00
2012-8-1,95,42,59,78,-32,-100,66,22,44,29.94,29.86,15,-380,20,0.00
2012-8-2,91,22,81,76,-63,-100,83,16,64,29.92,29.84,7,-666,7,0.00
2012-8-3,90,79,76,80,71,-100,100,86,61,29.95,29.83,8,-20,13,0.00
2012-8-4,93,58,78,81,17,-100,100,49,54,29.97,29.86,7,-299,13,0.00
2012-8-5,92,85,78,77,75,72,92,73,55,30.00,29.93,8,3,13,0.00
2012-8-6,89,82,77,83,76,-100,100,86,64,29.99,29.91,8,2,20,0.00
2012-8-8,83,83,82,76,75,75,79,78,78,29.96,29.95,2,1,3,0.00
2012-8-9,93,76,80,80,55,-100,85,63,53,29.96,29.84,11,-94,13,0.00
2012-8-10,81,19,79,74,-66,-100,79,15,79,29.92,29.85,0,-722,3,0.00
2012-8-14,95,86,78,84,76,71,100,74,47,29.97,29.87,11,1,16,0.00
2012-8-15,92,85,77,86,76,67,100,77,55,29.97,29.90,8,1,13,0.00
2012-8-16,94,82,75,81,76,-100,100,84,48,30.00,29.91,6,0,19,0.00
2012-8-17,96,82,72,83,70,-100,100,79,37,29.97,29.85,13,1,21,0.00
2012-8-18,95,82,74,84,75,-100,100,82,46,29.92,29.84,8,1,13,0.00
2012-8-19,98,87,79,78,75,67,91,70,39,29.93,29.84,7,2,10,0.00
2012-8-20,94,85,78,84,74,-100,100,75,49,29.94,29.83,9,1,14,0.00
2012-8-21,94,73,76,77,50,-100,91,61,46,30.00,29.90,8,-122,14,0.00
2012-8-22,94,82,75,77,73,67,91,76,50,30.01,29.93,12,2,17,0.00
2012-8-23,77,76,75,74,72,71,94,88,82,30.00,29.95,2,0,6,0.00
2012-8-24,82,79,74,74,70,66,94,75,61,29.95,29.84,7,2,17,0.00
2012-8-25,85,57,74,78,23,-100,96,60,74,29.91,29.79,7,-272,17,0.00
2012-8-26,84,72,76,84,43,-100,100,74,63,29.81,29.61,18,-75,24,0.00
2012-8-27,85,78,75,84,69,-100,100,87,79,29.87,29.64,16,-34,29,0.00
2012-8-28,81,5,80,77,-89,-100,88,5,86,29.93,29.84,0,-936,2,0.00
2012-8-29,81,22,78,77,-52,-100,93,24,88,29.93,29.84,1,-730,3,0.00
2012-8-30,92,59,77,79,15,-100,95,44,52,30.03,29.89,5,-315,12,0.00
2012-8-31,93,76,79,77,52,-100,91,61,43,30.07,29.98,5,-83,8,0.00
2012-9-1,92,58,78,77,17,-100,95,50,55,30.03,29.94,12,-313,13,0.00
2012-9-2,88,13,80,75,-78,-100,90,14,60,29.97,29.89,11,-764,11,0.00
2012-9-3,90,31,81,73,-66,-100,74,14,54,29.97,29.89,11,-569,11,0.00
2012-9-4,88,64,74,76,37,-100,94,60,58,29.96,29.86,11,-168,16,0.00
2012-9-5,92,55,71,75,6,-100,98,46,51,29.94,29.85,16,-254,29,0.11
2012-9-6,90,80,71,77,73,67,97,81,52,29.96,29.89,10,1,18,0.09
2012-9-7,92,82,73,78,74,68,98,78,47,29.93,29.83,7,1,12,0.00
2012-9-8,95,84,76,80,73,-100,99,74,37,29.91,29.80,7,1,9,0.30
2012-9-9,95,85,77,76,73,64,88,68,38,29.90,29.81,7,2,15,0.00
2012-9-10,91,83,79,77,75,72,90,77,56,29.93,29.85,10,2,16,0.00
2012-9-11,92,82,76,80,75,73,98,82,56,29.98,29.90,8,1,13,0.00
2012-9-12,85,80,76,76,74,72,97,84,69,29.98,29.91,10,2,11,0.00
2012-9-13,83,79,74,77,74,-100,98,86,71,30.00,29.89,7,1,12,0.00
2012-9-14,90,81,74,77,73,70,96,78,56,29.94,29.87,6,2,12,0.00
2012-9-15,91,81,74,78,74,71,98,82,55,29.96,29.88,6,2,12,1.65
2012-9-16,85,79,76,76,74,70,96,83,66,29.97,29.88,4,0,11,0.00
2012-9-17,89,80,74,75,73,70,97,79,56,29.94,29.84,8,2,12,0.00
2012-9-18,95,83,76,77,71,-100,95,72,49,29.91,29.81,18,-10,20,0.02
2012-9-19,94,79,75,78,60,-100,96,72,47,29.96,29.83,6,-40,11,0.00
2012-9-20,78,12,76,74,-84,-100,92,8,87,29.95,29.86,11,-782,13,0.00
2012-9-22,87,38,75,78,-15,-100,98,43,64,29.94,29.86,4,-499,11,0.00
2012-9-23,85,15,81,76,-81,-100,98,9,74,29.97,29.90,8,-737,8,0.00
2012-9-24,86,48,77,76,0,-100,83,44,63,29.98,29.90,7,-343,12,0.00
2012-9-25,88,69,75,75,48,-100,90,67,57,29.99,29.90,7,-100,8,0.00
2012-9-26,-200,0,200,-100,-100,-100,0,0,100,29.99,29.92,0,-999,0,0.00
2012-9-27,-200,0,200,-100,-100,-100,0,0,100,30.00,29.89,0,-999,0,0.00
2012-9-28,-200,0,200,-100,-100,-100,0,0,100,29.94,29.84,0,-999,0,0.00
2012-9-29,88,1,88,73,-99,-100,62,0,62,29.88,29.76,6,-981,6,0.00
2012-9-30,-200,0,200,-100,-100,-100,0,0,100,29.82,29.70,0,-999,0,0.00
2012-10-1,79,12,75,76,-73,-100,98,14,87,29.79,29.69,11,-827,11,0.00
2012-10-2,76,2,75,74,-94,-100,95,3,95,29.97,29.77,6,-885,6,0.00
2012-10-3,82,3,81,77,-94,-100,88,3,86,30.08,29.95,6,-924,6,0.00
2012-10-4,92,84,78,80,76,72,95,77,54,30.07,29.97,5,2,11,0.00
2012-10-5,92,78,79,78,57,-100,91,66,52,30.00,29.84,5,-39,11,0.00
2012-10-6,92,82,76,78,74,-100,97,79,54,29.90,29.76,4,1,7,0.00
2012-10-7,88,79,74,81,74,70,98,86,61,29.89,29.78,7,1,12,0.00
2012-10-8,89,80,75,77,73,-100,97,83,60,29.93,29.83,3,0,7,0.00
2012-10-9,90,82,77,80,75,70,98,81,53,29.93,29.86,4,1,8,0.00
2012-10-10,89,81,76,79,74,71,98,82,61,29.97,29.89,4,1,9,0.00
2012-10-11,76,76,75,73,72,72,92,90,86,29.97,29.95,2,0,3,0.00
2012-10-12,86,80,72,70,65,59,89,62,42,30.02,29.95,6,3,13,0.00
2012-10-13,85,79,72,72,67,62,89,70,47,30.01,29.93,10,4,18,0.00
2012-10-14,85,81,79,76,72,-100,89,75,62,29.97,29.84,10,4,16,0.00
2012-10-15,90,81,77,75,66,-100,90,72,55,29.85,29.70,5,-9,11,0.00
2012-10-16,90,80,74,74,71,67,96,77,49,29.76,29.68,6,2,11,0.00
2012-10-17,87,79,72,79,71,64,97,79,58,29.81,29.71,13,1,16,0.02
2012-10-18,91,36,74,78,-47,-100,95,26,50,29.79,29.71,8,-417,10,0.00
2012-10-19,89,81,75,78,74,70,98,82,57,29.81,29.72,5,1,10,0.00
2012-10-20,88,80,74,76,72,66,97,79,51,29.84,29.75,6,2,10,0.00
2012-10-21,86,76,72,72,59,-100,94,64,42,29.91,29.80,6,-31,11,0.00
2012-10-22,-200,0,200,-100,-100,-100,0,0,100,29.88,29.86,0,-999,2,0.00
2012-10-27,83,77,70,64,61,57,79,60,42,29.61,29.46,24,13,30,0.00
2012-10-28,81,73,66,67,62,57,93,71,46,29.70,29.59,14,9,21,0.00
2012-10-29,72,65,59,58,50,38,79,60,30,29.79,29.67,15,10,20,0.00
2012-10-30,72,63,54,51,42,-100,76,57,37,29.92,29.74,13,5,20,0.00
2012-10-31,73,35,54,53,-22,-100,97,41,44,29.99,29.89,10,-311,11,0.00
2012-11-1,60,1,60,-100,-100,-100,0,0,100,29.99,29.88,7,-916,7,0.00
2012-11-2,-200,0,200,-100,-100,-100,0,0,100,29.95,29.92,0,-999,0,0.00
2012-11-10,76,1,76,54,-97,-100,47,1,47,30.14,30.10,6,-982,14,0.00
2012-12-15,78,75,71,64,64,62,80,68,57,29.99,29.93,5,2,10,0.00
2012-12-16,82,73,66,72,66,64,97,80,57,29.96,29.87,7,1,13,0.00
2012-12-17,84,74,66,72,66,-100,100,79,47,29.90,29.80,4,1,11,0.00
2012-12-18,84,75,69,75,67,-100,100,81,52,29.93,29.82,8,2,12,0.00
2012-12-19,84,72,61,67,62,54,95,73,43,30.01,29.92,3,0,10,0.00
2012-12-20,82,38,63,77,-8,-100,98,49,49,30.00,29.88,8,-422,10,0.00
2012-12-21,-200,0,200,-100,-100,-100,0,0,100,29.93,29.89,0,-999,10,0.00
2012-12-24,75,68,61,59,58,57,92,71,55,29.95,29.91,4,1,12,0.00
2012-12-25,79,69,59,65,60,56,97,75,45,29.97,29.85,6,2,12,0.00
2012-12-26,84,75,63,72,67,58,95,79,57,29.90,29.76,11,3,19,0.00
2012-12-27,71,60,53,58,49,38,95,70,30,29.99,29.90,10,3,14,0.00
2012-12-28,79,68,52,71,63,49,93,83,68,29.99,29.88,5,1,12,0.00
2012-12-29,83,75,61,75,70,53,97,85,62,30.02,29.85,12,2,16,0.00
2012-12-30,68,60,50,56,52,45,88,75,60,30.19,30.02,11,5,16,0.00
2012-12-31,76,72,65,59,58,54,67,61,50,30.22,30.11,6,4,13,0.00
2013-1-1,80,73,65,63,59,57,87,64,50,30.11,29.97,8,2,16,0.00